[[[{"header":{"parameterUnit":"kt","parameterCategory":2,"dx":1,"dy":1,"la1":30.253999710083008,"la2":30.299108505249023,"lo1":-89.0895004272461,"lo2":-89.04439544677734,"nx":28,"ny":28,"refTime":"2022-10-19T21:00:00:Z","depth":0,"parameterNumber":1,"parameterNumberName":"U-component_of_WINDS"},"data":[3.7866,3.7932,3.7944,3.8023,3.8048,3.8103,3.8127,3.8158,3.8185,3.8251,3.829,3.8308,3.8339,3.8387,3.8429,3.8435,3.8451,3.8464,3.8469,3.8401,3.8392,3.8383,3.8368,3.8468,3.8469,3.8536,3.8536,3.8537,3.781,3.7835,3.7882,3.7936,3.7975,3.7969,3.8011,3.8043,3.8092,3.8127,3.8168,3.8226,3.8273,3.8301,3.8347,3.8375,3.8373,3.8386,3.8382,3.8386,3.8315,3.8299,3.8386,3.8386,3.8386,3.8386,3.8386,3.8386,3.7711,3.775,3.7791,3.7842,3.7872,3.7908,3.7946,3.7969,3.8014,3.8066,3.8073,3.8128,3.8164,3.8227,3.8251,3.8292,3.828,3.8297,3.83,3.8303,3.8304,3.8198,3.8302,3.8301,3.8301,3.8301,3.8301,0,3.7641,3.7649,3.7696,3.7746,3.7784,3.7824,3.7862,3.7887,3.7907,3.7944,3.7996,3.8028,3.8091,3.814,3.8188,3.8209,3.8203,3.8206,3.8217,3.8212,3.8201,3.8203,3.8082,3.8202,3.8201,3.8201,3.82,3.82,3.7537,3.7584,3.7634,3.7665,3.769,3.774,3.7771,3.7787,3.7819,3.7868,3.7901,3.7953,3.7994,3.8075,3.8099,3.8145,3.8142,3.8186,3.8149,3.8143,3.8137,3.8133,3.8135,3.8191,3.8192,3.8193,3.8194,0,3.7477,3.7499,3.7576,3.7621,3.7633,3.768,3.7717,3.7757,3.7775,3.7832,3.7846,3.7873,3.7924,3.7941,3.8004,3.801,3.8081,3.808,3.8068,3.8067,3.8104,3.8099,3.8233,3.8249,3.815,3.8151,3.8151,0,3.7395,3.7457,3.7485,3.7529,3.7596,3.7611,3.7676,3.7698,3.7732,3.7777,3.7777,3.7818,3.7835,3.7878,3.7889,3.7951,3.7964,3.7971,3.7972,3.7969,3.7967,3.7983,3.7976,3.798,3.7979,3.7978,3.7978,0,3.7295,3.7385,3.7457,3.748,3.7534,3.7567,3.759,3.7629,3.7661,3.7704,3.7724,3.7774,3.78,3.7837,3.7849,3.7823,3.7928,3.7894,3.7934,3.7934,3.7954,3.7951,3.8069,3.7977,3.7977,3.7976,3.7976,0,3.7232,3.7279,3.7381,3.7425,3.7448,3.7495,3.7545,3.7591,3.7631,3.7642,3.7676,3.7677,3.7737,3.7701,3.7781,3.7743,3.7768,3.7781,3.7785,3.7787,3.7746,3.7805,3.7919,3.7929,3.7794,3.7792,3.7791,0,3.7109,3.7219,3.7233,3.733,3.7382,3.7377,3.743,3.7468,3.7486,3.7531,3.7551,3.7603,3.7581,3.76,3.7638,3.7659,3.7709,3.7653,3.7712,3.7714,3.7697,3.7803,3.7814,3.7893,3.7772,3.7774,3.7775,0,3.7016,3.7084,3.7101,3.7127,3.7182,3.7227,3.7289,3.7345,3.7374,3.7418,3.7467,3.7543,3.7528,3.7559,3.7565,3.7604,3.7675,3.7582,3.7583,3.7594,3.7766,3.7774,3.7788,3.767,3.7673,3.7675,3.776,0,3.6906,3.6966,3.7014,3.7076,3.7115,3.7178,3.7199,3.7236,3.7239,3.7257,3.7332,3.7368,3.7424,3.7446,3.7449,3.7534,3.7521,3.7505,3.7469,3.7541,3.7569,3.7581,3.7425,3.7424,3.7424,3.7423,0,0,3.678,3.6867,3.6882,3.6944,3.6976,3.6971,3.7036,3.7068,3.7132,3.7153,3.7134,3.7246,3.7276,3.7365,3.7389,3.7413,3.7428,3.7404,3.7508,3.7517,3.7526,3.7556,3.7568,3.7422,3.7421,3.7421,3.7421,0,3.6744,3.678,3.6847,3.6881,3.6931,3.6948,3.6964,3.7013,3.7028,3.7104,3.7096,3.7144,3.7235,3.7266,3.7294,3.7395,3.7384,3.7411,3.7456,3.7499,3.751,3.7519,3.755,3.7562,3.7419,3.7419,3.7419,0,3.6653,3.669,3.6726,3.6805,3.6838,3.6894,3.6862,3.6924,3.6964,3.6954,3.7029,3.7052,3.7097,3.7181,3.7219,3.7202,3.7342,3.7304,3.7309,3.7312,3.7355,3.7367,3.7379,3.723,3.723,3.7229,0,0,3.6618,3.6676,3.6721,3.6799,3.682,3.6847,3.688,3.6886,3.6928,3.6945,3.6974,3.7014,3.7067,3.7101,3.7152,3.7241,3.7249,3.7279,3.7288,3.7296,3.7303,3.7347,3.736,3.7226,3.7226,3.7226,0,0,3.6601,3.6657,3.6652,3.6746,3.6788,3.6835,3.6881,3.6876,3.6925,3.6919,3.6931,3.6942,3.7021,3.7044,3.7004,3.7138,3.7103,3.7113,3.712,3.7131,3.714,3.7131,3.6974,0,0,0,0,0,3.6575,3.665,3.6645,3.6665,3.6764,3.6838,3.6851,3.6863,3.6837,3.6872,3.6896,3.6884,3.7024,3.6989,3.7006,3.705,3.719,3.7196,3.7202,3.7233,3.7245,3.7255,0,0,0,0,0,0,3.6583,3.6607,3.6643,3.6695,3.6717,3.6836,3.6794,3.6799,3.6833,3.683,3.688,3.6886,3.6896,3.698,3.6996,3.7037,3.6969,3.7193,3.7198,3.7203,3.7237,3.7247,3.7255,0,0,0,0,0,3.6589,3.6608,3.6765,3.6694,3.6713,3.6747,3.6791,3.6795,3.6822,3.6859,3.6864,3.6828,3.6897,3.6911,3.699,3.703,3.6958,3.6964,3.7196,3.72,3.7204,3.7242,0,0,0,0,0,0,3.6594,3.6612,3.677,3.6776,3.6667,3.6741,3.6753,3.6792,3.6848,3.6855,3.6807,3.6804,3.6899,3.6909,3.692,3.7026,3.6949,3.6955,3.6959,3.7199,3.7203,3.7206,0,0,0,0,0,0,3.6601,3.6617,3.6773,3.6739,3.6741,3.6735,3.6745,3.6814,3.6849,3.6793,3.6792,3.6805,3.6882,3.6909,3.6917,3.7024,3.6943,3.6948,3.6952,3.6955,3.7202,3.7205,0,0,0,0,0,0,3.6608,3.6621,3.6737,3.6739,3.6741,3.6812,3.6795,3.6896,3.6822,3.6791,3.6815,3.6812,3.6882,3.689,3.6915,3.7018,3.7023,3.6943,3.6947,3.6949,3.6951,0,0,0,0,0,0,0,3.6614,3.6522,3.6733,3.6739,3.6741,3.6834,3.6836,3.6837,3.6821,3.6819,3.6816,3.6814,3.691,3.6917,3.6923,3.7014,0,0,3.6942,3.6945,0,0,0,0,0,0,0,0,3.6517,3.6521,3.6733,3.6734,3.6735,3.6834,3.6836,3.6837,3.6821,3.6819,3.6817,3.6815,3.6912,3.6917,3.6922,0,0,0,0,0,0,0,0,0,0,0,0,0,0,0,3.6733,3.6734,0,3.6834,3.6836,3.6837,3.682,3.6819,3.6817,3.6815,3.6914,3.6918,3.6922,0,0,0,0,0,0,0,0,0,0,0,0,0,0,0,0,0,0,0,0,0,0,0,0,0,0,0,0,0,0,0,0,0,0,0,0,0,0,0,0,0,0,0,0,0,0,0,0,0,0,0,0,0,0,0,0,0,0,0,0,0,0,0,0,0,0,0,0,0]}],[{"header":{"parameterUnit":"kt","parameterCategory":2,"dx":1,"dy":1,"la1":30.253999710083008,"la2":30.299108505249023,"lo1":-89.0895004272461,"lo2":-89.04439544677734,"nx":28,"ny":28,"refTime":"2022-10-19T21:00:00:Z","depth":0,"parameterNumber":2,"parameterNumberName":"V-component_of_WINDS"},"data":[3.2328,3.2341,3.2317,3.232,3.2299,3.2296,3.2287,3.2273,3.2255,3.2247,3.2238,3.2214,3.2186,3.2167,3.2155,3.2144,3.2139,3.216,3.2143,3.2076,3.2065,3.2054,3.2049,3.216,3.216,3.2216,3.2216,3.2217,3.2274,3.2254,3.225,3.223,3.2225,3.219,3.2171,3.2168,3.2166,3.2145,3.2136,3.2127,3.2116,3.208,3.2065,3.2068,3.205,3.2065,3.2063,3.2059,3.1986,3.1982,3.2079,3.2079,3.2079,3.2079,3.2079,3.2079,3.2169,3.2178,3.2153,3.2148,3.2132,3.2118,3.2122,3.2095,3.2089,3.2074,3.2047,3.2044,3.2017,3.1989,3.1973,3.1968,3.1947,3.1956,3.1957,3.196,3.1964,3.1881,3.1965,3.1965,3.1964,3.1964,3.1964,0,3.2084,3.2064,3.206,3.2048,3.2043,3.2032,3.2018,3.202,3.1969,3.1967,3.1962,3.1954,3.1939,3.1929,3.1911,3.1893,3.1856,3.1851,3.1856,3.1868,3.1879,3.187,3.175,3.1848,3.1847,3.1847,3.1846,3.1846,3.1974,3.199,3.1954,3.1953,3.194,3.1941,3.1936,3.1892,3.1888,3.1863,3.1873,3.1864,3.1855,3.1849,3.1816,3.1804,3.1786,3.1825,3.1784,3.1793,3.1782,3.1781,3.178,3.1834,3.1835,3.1837,3.1838,0,3.1913,3.1877,3.1894,3.1858,3.1848,3.1866,3.1833,3.1841,3.1814,3.182,3.1819,3.1777,3.1772,3.1732,3.172,3.1699,3.1721,3.1705,3.1728,3.1722,3.1751,3.1748,3.1859,3.187,3.1758,3.1759,3.176,0,3.1804,3.1827,3.1771,3.1784,3.1806,3.1761,3.1784,3.1763,3.1742,3.1747,3.17,3.1705,3.1655,3.1653,3.1623,3.1635,3.1634,3.1617,3.1608,3.162,3.1622,3.1616,3.161,3.1592,3.1592,3.1591,3.1591,0,3.1712,3.1711,3.173,3.1724,3.1688,3.1698,3.1683,3.166,3.1657,3.1646,3.1642,3.1633,3.1627,3.1619,3.158,3.1553,3.1595,3.155,3.1578,3.1579,3.1589,3.1589,3.1698,3.159,3.159,3.159,3.159,0,3.1618,3.1611,3.1646,3.1614,3.1615,3.1629,3.1617,3.1619,3.1599,3.1581,3.1572,3.1537,3.1547,3.1504,3.1516,3.1491,3.1487,3.1473,3.1475,3.1472,3.1425,3.1489,3.1599,3.1608,3.147,3.1469,3.1468,0,3.152,3.1548,3.151,3.1545,3.1552,3.1499,3.1512,3.1497,3.1475,3.1476,3.145,3.1453,3.1413,3.1408,3.142,3.1393,3.1425,3.1388,3.1385,3.1386,3.139,3.1491,3.1517,3.158,3.1455,3.1456,3.1457,0,3.144,3.1399,3.1409,3.1399,3.1374,3.1381,3.1397,3.139,3.1393,3.1382,3.1393,3.1397,3.1366,3.136,3.1331,3.1345,3.1402,3.131,3.1309,3.1325,3.1446,3.1469,3.148,3.1379,3.138,3.1382,3.1447,0,3.1301,3.1312,3.1336,3.1321,3.1321,3.1342,3.1303,3.1307,3.1279,3.1256,3.1273,3.1253,3.1246,3.125,3.1224,3.1269,3.1255,3.1223,3.1178,3.1246,3.1266,3.1275,3.1151,3.1149,3.1148,3.1147,0,0,3.1215,3.123,3.1191,3.1207,3.1204,3.1151,3.1176,3.1167,3.1151,3.1149,3.1124,3.1128,3.1113,3.1138,3.1156,3.1155,3.1158,3.1137,3.1215,3.1223,3.123,3.1252,3.1262,3.1145,3.1144,3.1144,3.1143,0,3.1156,3.1145,3.1173,3.1161,3.1144,3.1119,3.1126,3.1099,3.1086,3.1105,3.106,3.1066,3.1073,3.1061,3.1056,3.1133,3.1098,3.1135,3.1188,3.1203,3.1213,3.1221,3.1245,3.1255,3.114,3.114,3.114,0,3.1068,3.105,3.106,3.1054,3.1043,3.1053,3.0996,3.1011,3.1017,3.0959,3.0979,3.0962,3.0945,3.0976,3.0988,3.0966,3.1046,3.1016,3.1023,3.1023,3.1036,3.1047,3.1058,3.0922,3.0922,3.0921,0,0,3.1023,3.1034,3.1001,3.1039,3.1035,3.0999,3.1002,3.0975,3.0962,3.0957,3.0936,3.0923,3.0926,3.0929,3.093,3.097,3.0961,3.099,3.1001,3.1009,3.1014,3.1029,3.1041,3.0919,3.0919,3.0919,0,0,3.1001,3.0964,3.0939,3.0979,3.0968,3.0938,3.0962,3.093,3.0927,3.0921,3.0876,3.0871,3.0899,3.0886,3.0859,3.0912,3.0869,3.0874,3.092,3.0933,3.0943,3.0945,3.0798,0,0,0,0,0,3.0922,3.0968,3.0946,3.0947,3.0941,3.095,3.0949,3.0913,3.0882,3.0901,3.0878,3.0842,3.0861,3.0837,3.0838,3.0868,3.0889,3.0894,3.0899,3.0968,3.0981,3.0993,0,0,0,0,0,0,3.0922,3.0924,3.0945,3.0918,3.0916,3.0948,3.0887,3.0879,3.0879,3.0872,3.0847,3.0841,3.081,3.0834,3.0835,3.0864,3.0797,3.0891,3.0896,3.09,3.0972,3.0983,3.0993,0,0,0,0,0,3.0922,3.0923,3.0924,3.0917,3.0915,3.0878,3.0885,3.0878,3.0877,3.0843,3.0835,3.085,3.0812,3.0811,3.0834,3.0864,3.0796,3.0797,3.0894,3.0898,3.0901,3.0978,0,0,0,0,0,0,3.0922,3.0916,3.0922,3.092,3.0897,3.0876,3.0871,3.0877,3.0847,3.0841,3.0843,3.0838,3.0814,3.0813,3.0812,3.0866,3.0795,3.0796,3.0796,3.0897,3.09,3.0902,0,0,0,0,0,0,3.0915,3.0915,3.0921,3.0899,3.0894,3.0874,3.087,3.0885,3.0848,3.0849,3.0844,3.0841,3.0815,3.0815,3.0814,3.0839,3.0794,3.0795,3.0795,3.0795,3.0899,3.0901,0,0,0,0,0,0,3.0914,3.0914,3.0899,3.0895,3.0891,3.0867,3.0886,3.0882,3.0829,3.0852,3.0824,3.0821,3.0817,3.0816,3.0815,3.0841,3.084,3.0794,3.0794,3.0795,3.0795,0,0,0,0,0,0,0,3.0913,3.0924,3.0934,3.0893,3.0889,3.0903,3.0902,3.0902,3.0829,3.0827,3.0824,3.0822,3.079,3.0791,3.0791,3.0843,0,0,3.0794,3.0794,0,0,0,0,0,0,0,0,3.0923,3.0923,3.0934,3.0933,3.0933,3.0903,3.0902,3.0902,3.0828,3.0827,3.0825,3.0823,3.079,3.0791,3.0791,0,0,0,0,0,0,0,0,0,0,0,0,0,0,0,3.0934,3.0933,0,3.0903,3.0902,3.0902,3.0828,3.0827,3.0825,3.0824,3.079,3.0791,3.0791,0,0,0,0,0,0,0,0,0,0,0,0,0,0,0,0,0,0,0,0,0,0,0,0,0,0,0,0,0,0,0,0,0,0,0,0,0,0,0,0,0,0,0,0,0,0,0,0,0,0,0,0,0,0,0,0,0,0,0,0,0,0,0,0,0,0,0,0,0]}]]]